When you browse on this site, cookies collect data to enhance your experience and personalize the content and advertising you see.
Visit our Privacy Policy to learn more. By continuing to use the site, you agree to this use of cookies and data.
  • In Hungary
  • List of Countries
  • For 7 days
  • Water Temperature
  • Weather Map
  • News
  • Weather Widgets
  • user-avatar
    Login

    Hourly Weather Akbarpur

    Today, 7 December, Saturday

    Time Temperature Precipitation Wind Pressure Humidity
    00:00 +18°C° 0 mm 0 mps 755 mmHg 50%
    01:00 +20°C° 0 mm 1 mps 755 mmHg 52%
    02:00 +19°C° 0 mm 1 mps 755 mmHg 53%
    03:00 +19°C° 0 mm 1 mps 755 mmHg 55%
    04:00 +19°C° 0 mm 1 mps 755 mmHg 57%
    05:00 +18°C° 0 mm 1 mps 755 mmHg 59%
    06:00 +18°C° 0 mm 1 mps 755 mmHg 62%
    07:00 +19°C° 0 mm 1 mps 756 mmHg 60%
    08:00 +21°C° 0 mm 1 mps 756 mmHg 57%
    09:00 +22°C° 0 mm 1 mps 757 mmHg 54%
    10:00 +23°C° 0 mm 1 mps 756 mmHg 50%
    11:00 +25°C° 0 mm 1 mps 756 mmHg 46%
    12:00 +26°C° 0 mm 2 mps 755 mmHg 42%
    13:00 +27°C° 0 mm 1 mps 755 mmHg 41%
    14:00 +27°C° 0 mm 1 mps 754 mmHg 39%
    15:00 +28°C° 0 mm 1 mps 753 mmHg 38%
    16:00 +25°C° 0 mm 0 mps 753 mmHg 42%
    17:00 +23°C° 0 mm 0 mps 753 mmHg 45%
    18:00 +22°C° 0 mm 0 mps 753 mmHg 49%
    19:00 +21°C° 0 mm 0 mps 753 mmHg 51%
    20:00 +23°C° 0 mm 1 mps 754 mmHg 52%
    21:00 +22°C° 0 mm 1 mps 754 mmHg 54%
    22:00 +22°C° 0 mm 1 mps 754 mmHg 56%
    23:00 +21°C° 0 mm 1 mps 754 mmHg 57%

    Tomorrow, 8 December, Sunday

    Time Temperature Precipitation Wind Pressure Humidity
    00:00 +21°C° 0 mm 1 mps 754 mmHg 58%
    01:00 +20°C° 0 mm 1 mps 754 mmHg 60%
    02:00 +20°C° 0 mm 1 mps 753 mmHg 61%
    03:00 +20°C° 0 mm 1 mps 753 mmHg 62%
    04:00 +19°C° 0 mm 1 mps 753 mmHg 63%
    05:00 +19°C° 0 mm 1 mps 754 mmHg 65%
    06:00 +19°C° 0 mm 1 mps 754 mmHg 66%
    07:00 +20°C° 0 mm 1 mps 754 mmHg 62%
    08:00 +21°C° 0 mm 1 mps 755 mmHg 59%
    09:00 +22°C° 0 mm 1 mps 756 mmHg 55%
    10:00 +24°C° 0 mm 1 mps 756 mmHg 50%
    11:00 +25°C° 0 mm 1 mps 755 mmHg 45%
    12:00 +25°C° 0 mm 0 mps 755 mmHg 41%
    13:00 +28°C° 0 mm 1 mps 754 mmHg 39%
    14:00 +28°C° 0 mm 1 mps 754 mmHg 36%
    15:00 +28°C° 0 mm 1 mps 753 mmHg 34%
    16:00 +27°C° 0 mm 1 mps 753 mmHg 37%
    17:00 +25°C° 0 mm 1 mps 753 mmHg 40%
    18:00 +22°C° 0 mm 0 mps 753 mmHg 44%
    19:00 +21°C° 0 mm 0 mps 753 mmHg 45%
    20:00 +21°C° 0 mm 0 mps 753 mmHg 46%
    21:00 +20°C° 0 mm 0 mps 754 mmHg 48%
    22:00 +20°C° 0 mm 0 mps 754 mmHg 48%
    23:00 +19°C° 0 mm 0 mps 754 mmHg 49%

    Day after tomorrow, 9 December, Monday

    Time Temperature Precipitation Wind Pressure Humidity
    00:00 +19°C° 0 mm 0 mps 754 mmHg 50%
    01:00 +20°C° 0 mm 1 mps 753 mmHg 51%
    02:00 +20°C° 0 mm 1 mps 753 mmHg 51%
    03:00 +20°C° 0 mm 1 mps 753 mmHg 52%
    04:00 +19°C° 0 mm 1 mps 753 mmHg 53%
    05:00 +19°C° 0 mm 1 mps 753 mmHg 54%
    06:00 +18°C° 0 mm 1 mps 753 mmHg 55%
    07:00 +19°C° 0 mm 1 mps 754 mmHg 52%
    08:00 +18°C° 0 mm 0 mps 755 mmHg 49%
    09:00 +20°C° 0 mm 0 mps 755 mmHg 46%
    10:00 +21°C° 0 mm 0 mps 755 mmHg 42%
    11:00 +23°C° 0 mm 0 mps 755 mmHg 38%
    12:00 +25°C° 0 mm 0 mps 755 mmHg 34%
    13:00 +25°C° 0 mm 0 mps 754 mmHg 32%
    14:00 +28°C° 0 mm 1 mps 753 mmHg 30%
    15:00 +28°C° 0 mm 2 mps 753 mmHg 28%
    16:00 +26°C° 0 mm 1 mps 752 mmHg 31%
    17:00 +25°C° 0 mm 1 mps 752 mmHg 34%
    18:00 +24°C° 0 mm 1 mps 752 mmHg 37%
    19:00 +23°C° 0 mm 1 mps 752 mmHg 38%
    20:00 +22°C° 0 mm 1 mps 753 mmHg 39%
    21:00 +21°C° 0 mm 1 mps 753 mmHg 40%
    22:00 +21°C° 0 mm 1 mps 753 mmHg 41%
    23:00 +21°C° 0 mm 1 mps 753 mmHg 41%

    10 December, Tuesday

    Time Temperature Precipitation Wind Pressure Humidity
    00:00 +20°C° 0 mm 1 mps 752 mmHg 42%
    01:00 +20°C° 0 mm 1 mps 752 mmHg 43%
    02:00 +19°C° 0 mm 1 mps 752 mmHg 45%
    03:00 +19°C° 0 mm 1 mps 752 mmHg 46%
    04:00 +18°C° 0 mm 1 mps 752 mmHg 47%
    05:00 +18°C° 0 mm 1 mps 752 mmHg 48%
    06:00 +16°C° 0 mm 1 mps 751 mmHg 50%
    07:00 +18°C° 0 mm 1 mps 752 mmHg 47%
    08:00 +19°C° 0 mm 1 mps 753 mmHg 45%
    09:00 +21°C° 0 mm 1 mps 753 mmHg 42%
    10:00 +21°C° 0 mm 2 mps 753 mmHg 38%
    11:00 +24°C° 0 mm 2 mps 753 mmHg 34%
    12:00 +26°C° 0 mm 2 mps 753 mmHg 29%
    13:00 +26°C° 0 mm 2 mps 752 mmHg 27%
    14:00 +27°C° 0 mm 3 mps 751 mmHg 25%
    15:00 +27°C° 0 mm 3 mps 750 mmHg 24%
    16:00 +26°C° 0 mm 2 mps 750 mmHg 27%
    17:00 +24°C° 0 mm 2 mps 750 mmHg 30%
    18:00 +21°C° 0 mm 2 mps 750 mmHg 33%
    19:00 +22°C° 0 mm 1 mps 750 mmHg 34%
    20:00 +21°C° 0 mm 1 mps 750 mmHg 35%
    21:00 +20°C° 0 mm 1 mps 751 mmHg 37%
    22:00 +20°C° 0 mm 1 mps 751 mmHg 38%
    23:00 +19°C° 0 mm 1 mps 751 mmHg 38%

    11 December, Wednesday

    Time Temperature Precipitation Wind Pressure Humidity
    00:00 +19°C° 0 mm 1 mps 750 mmHg 39%
    01:00 +18°C° 0 mm 1 mps 750 mmHg 40%
    02:00 +17°C° 0 mm 2 mps 750 mmHg 41%
    03:00 +16°C° 0 mm 2 mps 750 mmHg 42%
    04:00 +16°C° 0 mm 1 mps 750 mmHg 43%
    05:00 +15°C° 0 mm 1 mps 750 mmHg 44%
    06:00 +15°C° 0 mm 1 mps 750 mmHg 45%
    07:00 +16°C° 0 mm 1 mps 751 mmHg 43%
    08:00 +18°C° 0 mm 1 mps 752 mmHg 40%
    09:00 +20°C° 0 mm 1 mps 752 mmHg 38%
    10:00 +22°C° 0 mm 1 mps 752 mmHg 34%
    11:00 +23°C° 0 mm 1 mps 752 mmHg 30%
    12:00 +25°C° 0 mm 1 mps 752 mmHg 26%
    13:00 +26°C° 0 mm 1 mps 752 mmHg 25%
    14:00 +26°C° 0 mm 1 mps 751 mmHg 23%
    15:00 +27°C° 0 mm 1 mps 750 mmHg 21%
    16:00 +25°C° 0 mm 1 mps 750 mmHg 24%
    17:00 +21°C° 0 mm 0 mps 750 mmHg 26%
    18:00 +20°C° 0 mm 0 mps 750 mmHg 29%
    19:00 +19°C° 0 mm 0 mps 750 mmHg 30%
    20:00 +18°C° 0 mm 0 mps 750 mmHg 31%
    21:00 +20°C° 0 mm 1 mps 751 mmHg 32%
    22:00 +20°C° 0 mm 1 mps 751 mmHg 32%
    23:00 +19°C° 0 mm 1 mps 751 mmHg 32%

    12 December, Thursday

    Time Temperature Precipitation Wind Pressure Humidity
    00:00 +19°C° 0 mm 1 mps 751 mmHg 33%
    01:00 +19°C° 0 mm 1 mps 751 mmHg 34%
    02:00 +18°C° 0 mm 1 mps 751 mmHg 35%
    03:00 +17°C° 0 mm 2 mps 751 mmHg 35%
    04:00 +17°C° 0 mm 2 mps 751 mmHg 36%
    05:00 +16°C° 0 mm 2 mps 751 mmHg 37%
    06:00 +16°C° 0 mm 2 mps 751 mmHg 38%
    07:00 +17°C° 0 mm 2 mps 752 mmHg 38%
    08:00 +19°C° 0 mm 1 mps 753 mmHg 37%
    09:00 +20°C° 0 mm 1 mps 753 mmHg 37%
    10:00 +20°C° 0 mm 2 mps 753 mmHg 34%
    11:00 +23°C° 0 mm 2 mps 753 mmHg 31%
    12:00 +25°C° 0 mm 2 mps 753 mmHg 28%
    13:00 +25°C° 0 mm 2 mps 753 mmHg 27%
    14:00 +26°C° 0 mm 2 mps 752 mmHg 27%
    15:00 +27°C° 0 mm 2 mps 751 mmHg 26%
    16:00 +25°C° 0 mm 2 mps 751 mmHg 29%
    17:00 +23°C° 0 mm 2 mps 751 mmHg 32%
    18:00 +21°C° 0 mm 2 mps 751 mmHg 35%
    19:00 +20°C° 0 mm 2 mps 751 mmHg 36%
    20:00 +20°C° 0 mm 2 mps 752 mmHg 37%
    21:00 +19°C° 0 mm 2 mps 752 mmHg 38%
    22:00 +19°C° 0 mm 2 mps 752 mmHg 40%
    23:00 +18°C° 0 mm 2 mps 752 mmHg 42%
    Show more